Location: ?????
(31.8092°N, 35.2590°E)
Time: 15:16:40
(UTC+00:00)

ARIANE 5 R/B - Pass Details

Date: 20 June 2021
Orbit: 620 x 656 km, 98.1° (Epoch: 28 July)

Event Time Altitude Azimuth Distance (km) Brightness Sun altitude
Exits shadow 18:23:32 20° 84° (E) 1,473 4.1 -17.4°
Maximum altitude 18:24:17 21° 70° (ENE) 1,438 4.2 -17.5°
Drops below altitude 10° 18:27:38 10° 21° (NNE) 2,051 5.5 -18.0°
Sets 18:30:16 0° 6° (N) 2,971 6.6 -18.4°
